Vorticity
-2 32 12 2 6 9 7 4 3 1 3 3 4 3 3 5 5 5 3 3 3 -0 1 4 2 3 3 4 5 7 6 8 4 7 1 -1 2 4 -2 -1 8 8 8
17 15 8 6 5 9 4 5 2 2 3 3 2 2 5 5 4 4 4 3 -0 4 6 5 5 7 7 9 7 2 1 3 6 6 7 3 3 0 8 7 0 3 4
16 8 10 9 6 11 12 3 2 1 3 3 4 4 4 4 3 5 6 4 5 7 6 3 3 8 8 3 -1 -3 1 1 1 2 5 8 10 11 -3 5 4 3 4
2 9 9 2 6 14 6 2 2 4 3 4 6 5 5 6 4 4 6 5 2 3 2 3 8 1 2 1 6 7 2 1 2 1 4 6 2 -1 -5 -3 7 2 3
8 12 6 4 8 17 10 2 1 6 2 2 1 2 4 4 4 4 6 4 4 7 8 2 3 3 5 6 5 3 4 1 1 5 4 7 4 5 6 13 3 2 1
16 10 5 9 14 12 6 0 2 4 4 3 4 5 3 4 4 6 4 4 3 4 9 3 2 3 2 1 -2 1 2 4 5 5 6 5 7 8 7 7 5 6 8
15 6 6 12 10 7 2 1 1 2 2 0 0 1 3 5 4 5 4 3 3 2 3 7 4 1 2 1 2 3 3 5 4 1 0 4 6 7 6 8 10 5 9
8 6 11 13 7 4 1 0 2 3 3 3 3 3 4 5 5 5 6 6 5 4 4 8 3 4 3 2 1 3 3 2 1 2 -0 2 5 6 4 7 11 10 9
10 13 17 6 4 3 1 1 1 1 2 3 2 4 6 4 3 6 8 6 4 6 6 6 6 5 5 2 3 2 3 4 2 2 1 2 2 4 4 5 5 9 7
10 17 6 3 2 1 1 1 2 2 1 3 2 2 6 4 3 7 6 5 5 7 4 5 5 4 4 3 5 4 0 4 5 2 3 4 3 4 4 4 5 5 6
15 11 5 1 2 1 1 2 2 2 3 6 4 5 5 4 5 10 2 4 8 6 5 5 2 3 5 7 6 4 3 5 4 3 1 3 3 5 4 4 4 6 7
9 5 4 2 2 2 2 2 2 4 5 5 6 7 5 5 6 6 1 4 3 6 5 1 -0 1 6 7 4 3 2 5 3 5 3 2 4 3 2 4 6 7 7
3 2 1 -0 1 4 6 6 5 5 5 3 5 9 7 7 9 2 1 4 3 5 7 4 2 1 1 5 8 5 5 9 2 -4 8 3 5 3 3 5 6 7 7
11 4 1 2 1 2 6 8 6 3 6 -2 1 5 8 8 5 3 3 4 3 5 8 6 6 4 3 3 3 6 4 8 7 1 0 5 4 5 7 6 5 8 10
7 9 7 4 5 7 7 7 4 3 4 2 -0 4 8 8 6 2 2 2 4 6 4 5 6 7 6 6 6 5 6 3 6 8 -2 7 8 6 9 5 8 9 9
8 11 10 7 9 9 7 7 4 4 4 5 6 6 8 9 8 4 5 1 6 8 5 6 5 4 4 5 7 7 6 6 8 12 -2 5 -7 -4 8 6 7 7 8
9 8 11 10 6 7 7 6 5 4 5 7 7 8 8 7 10 5 2 0 0 6 3 2 3 6 7 7 8 5 7 1 6 6 1 2 6 -6 6 6 6 7 11
8 5 8 10 9 5 5 9 6 8 9 10 6 9 10 7 6 3 1 1 0 5 5 3 5 8 6 8 4 3 6 -0 11 6 2 14 9 -0 4 3 7 11 11
9 5 4 5 7 11 7 9 6 6 5 6 7 9 8 7 6 4 3 1 1 5 6 6 5 6 5 4 5 7 4 13 11 2 6 6 -6 3 3 4 5 7 4
7 5 6 3 6 9 11 12 15 11 10 11 9 5 6 7 5 4 4 3 4 5 4 5 3 6 5 4 1 -2 -1 7 -1 -2 5 -2 -11 -6 6 10 8 10 7
9 -0 10 6 6 8 7 10 10 9 10 9 5 3 4 6 7 6 6 7 5 5 5 4 -1 6 1 6 11 3 -27 7 43 14 -6 -4 -15 1 4 5 11 9 3
15 6 8 7 10 10 11 11 9 11 10 6 4 4 3 6 7 7 7 6 4 4 5 7 2 4 5 8 4 1 27 37 5 11 5 7 -9 15 6 7 8 5 9
14 17 10 10 15 17 8 4 4 5 5 3 4 6 5 5 7 7 6 4 6 6 5 3 4 3 7 6 8 9 -5 -57 70 22 13 -9 -44 8 7 5 5 9 7
19 12 9 5 7 5 3 3 4 4 4 4 4 3 3 3 5 5 5 7 8 6 6 2 3 5 3 8 14 16 -27 50 77 -36 17 -43 -53 -7 14 7 6 8 4
17 22 14 14 12 14 7 8 8 7 5 5 6 2 -0 1 7 7 7 7 5 6 3 3 4 5 10 12 55 -52 9 -26 -36 16 7 19 -22 7 3 13 2 11 3
5 5 1 2 3 8 9 3 5 8 9 5 3 1 0 5 8 9 9 9 8 5 5 4 4 1 -4 -6 17 -54 -27 24 18 13 36 14 -13 21 11 7 11 7 5
Height
5871 5871 5872 5874 5875 5877 5876 5878 5876 5876 5877 5878 5879 5880 5879 5880 5882 5883 5884 5883 5883 5882 5882 5881 5881 5881 5881 5880 5878 5877 5877 5876 5875 5873 5872 5871 5869 5867 5865 5863 5862 5860 5858
5870 5870 5872 5873 5875 5877 5878 5879 5878 5878 5879 5880 5880 5881 5881 5881 5882 5884 5884 5884 5884 5884 5883 5882 5882 5881 5881 5880 5878 5877 5876 5875 5873 5872 5870 5868 5867 5865 5864 5862 5860 5858 5855
5870 5870 5872 5874 5874 5877 5879 5880 5880 5880 5880 5881 5881 5882 5883 5883 5883 5884 5884 5884 5884 5884 5883 5883 5882 5882 5880 5878 5877 5877 5876 5874 5873 5871 5869 5867 5865 5863 5861 5859 5857 5855 5853
5870 5871 5872 5873 5874 5877 5880 5881 5881 5882 5882 5883 5883 5883 5883 5884 5884 5883 5884 5884 5883 5883 5883 5882 5882 5881 5880 5879 5878 5876 5874 5873 5872 5870 5867 5865 5863 5860 5858 5856 5854 5851 5848
5868 5870 5871 5873 5875 5877 5880 5881 5882 5882 5882 5883 5883 5883 5883 5883 5883 5883 5883 5883 5883 5883 5883 5883 5881 5880 5879 5878 5877 5875 5873 5872 5870 5868 5866 5864 5862 5860 5858 5854 5852 5850 5846
5867 5868 5871 5872 5874 5877 5880 5882 5882 5883 5883 5883 5883 5883 5882 5882 5882 5882 5882 5882 5882 5882 5882 5882 5880 5880 5879 5878 5876 5875 5873 5870 5869 5867 5865 5862 5860 5857 5855 5853 5851 5847 5844
5866 5867 5869 5871 5874 5878 5880 5881 5882 5883 5883 5884 5883 5883 5882 5882 5882 5882 5882 5881 5881 5880 5879 5879 5879 5878 5877 5876 5875 5873 5871 5869 5868 5865 5863 5860 5858 5856 5853 5851 5849 5847 5845
5865 5868 5870 5871 5874 5877 5880 5881 5882 5883 5883 5883 5882 5882 5882 5882 5881 5881 5881 5880 5879 5878 5877 5876 5875 5875 5875 5873 5872 5871 5870 5867 5866 5864 5861 5858 5857 5855 5850 5848 5845 5843 5842
5864 5867 5870 5873 5875 5878 5879 5880 5881 5881 5882 5882 5881 5881 5881 5880 5880 5880 5880 5879 5878 5878 5876 5875 5873 5873 5873 5871 5870 5868 5867 5865 5863 5862 5859 5857 5854 5852 5848 5844 5843 5840 5836
5865 5867 5870 5873 5876 5878 5879 5880 5880 5880 5880 5881 5880 5880 5879 5879 5879 5879 5878 5877 5877 5876 5875 5874 5872 5871 5870 5870 5867 5865 5864 5862 5861 5859 5856 5853 5850 5847 5845 5840 5838 5834 5832
5866 5867 5870 5872 5874 5876 5878 5879 5879 5879 5879 5879 5879 5878 5878 5877 5877 5877 5877 5876 5876 5874 5873 5871 5870 5868 5867 5866 5864 5863 5861 5859 5857 5854 5851 5849 5846 5843 5839 5836 5833 5830 5827
5868 5869 5870 5872 5874 5875 5876 5877 5877 5877 5876 5876 5876 5876 5876 5875 5875 5875 5875 5874 5873 5872 5871 5869 5867 5866 5864 5863 5861 5859 5857 5855 5853 5850 5848 5846 5843 5839 5835 5831 5828 5825 5822
5868 5869 5870 5871 5872 5874 5875 5875 5874 5874 5874 5874 5874 5874 5873 5872 5872 5872 5872 5872 5870 5869 5868 5866 5864 5862 5861 5860 5858 5856 5854 5851 5849 5846 5844 5841 5837 5832 5829 5827 5824 5820 5817
5867 5867 5867 5868 5869 5870 5870 5870 5871 5871 5871 5871 5871 5870 5869 5869 5869 5870 5869 5868 5867 5866 5864 5863 5861 5859 5858 5856 5853 5851 5848 5845 5842 5841 5838 5835 5830 5827 5825 5823 5820 5816 5811
5865 5864 5864 5864 5865 5865 5865 5865 5866 5866 5867 5867 5867 5866 5865 5865 5866 5866 5866 5865 5864 5862 5861 5859 5857 5855 5853 5850 5847 5844 5842 5840 5838 5835 5832 5829 5826 5823 5820 5817 5813 5809 5805
5861 5860 5860 5859 5860 5860 5861 5861 5862 5862 5862 5862 5862 5861 5861 5861 5861 5861 5861 5861 5859 5858 5856 5855 5852 5850 5848 5845 5842 5840 5838 5835 5832 5829 5826 5823 5820 5818 5813 5809 5805 5801 5797
5857 5856 5855 5855 5855 5855 5856 5857 5857 5857 5857 5857 5857 5856 5856 5856 5856 5856 5856 5855 5854 5853 5851 5849 5846 5844 5842 5839 5836 5833 5831 5829 5826 5822 5819 5816 5813 5809 5804 5801 5797 5794 5791
5854 5853 5852 5851 5850 5849 5850 5852 5852 5853 5852 5851 5851 5851 5851 5851 5850 5850 5850 5849 5848 5846 5845 5843 5840 5837 5835 5833 5829 5828 5825 5822 5819 5816 5813 5810 5806 5802 5796 5792 5788 5785 5782
5849 5849 5847 5847 5846 5844 5843 5845 5846 5847 5846 5845 5845 5845 5845 5845 5844 5844 5843 5842 5841 5840 5838 5835 5833 5831 5829 5826 5823 5822 5819 5815 5810 5807 5803 5800 5799 5793 5787 5783 5779 5776 5772
5842 5843 5843 5842 5841 5840 5839 5839 5840 5840 5840 5840 5839 5839 5838 5838 5838 5837 5837 5835 5833 5832 5831 5827 5826 5823 5821 5817 5815 5813 5809 5804 5799 5793 5791 5791 5789 5786 5779 5775 5770 5766 5762
5837 5836 5837 5836 5835 5834 5834 5834 5834 5834 5834 5834 5833 5833 5832 5832 5832 5831 5831 5829 5826 5825 5823 5820 5818 5814 5811 5808 5805 5802 5799 5796 5789 5784 5785 5782 5780 5776 5768 5763 5759 5756 5750
5831 5831 5830 5829 5828 5828 5828 5828 5828 5828 5829 5828 5827 5827 5826 5825 5824 5823 5822 5821 5818 5816 5814 5811 5808 5804 5802 5798 5793 5790 5788 5786 5780 5774 5770 5767 5760 5756 5755 5753 5751 5746 5741
5825 5826 5825 5823 5822 5822 5822 5822 5822 5822 5823 5822 5821 5820 5819 5817 5816 5815 5813 5811 5810 5807 5805 5803 5799 5795 5791 5787 5785 5778 5774 5769 5757 5759 5757 5757 5752 5747 5745 5737 5738 5734 5731
5819 5819 5818 5817 5817 5817 5816 5816 5816 5817 5817 5816 5814 5812 5811 5809 5808 5806 5804 5802 5801 5798 5795 5793 5790 5786 5780 5776 5774 5764 5745 5762 5756 5746 5747 5747 5744 5739 5737 5729 5725 5720 5716
5812 5812 5812 5812 5812 5812 5811 5810 5810 5810 5810 5809 5807 5805 5804 5802 5800 5798 5796 5792 5790 5788 5787 5784 5781 5776 5772 5765 5758 5751 5756 5751 5746 5750 5747 5735 5735 5733 5727 5721 5713 5707 5701
5806 5806 5806 5805 5805 5804 5803 5802 5802 5801 5800 5800 5798 5797 5795 5794 5792 5789 5788 5786 5783 5781 5778 5775 5771 5766 5762 5756 5749 5747 5747 5742 5741 5738 5734 5721 5726 5724 5714 5704 5700 5693 5684